Location: Arroyo de Valdeoliva
(40.1604°N, 4.9878°W)
Time: 20:55:23
(UTC+00:00)

USA 238 DEB - Pass Details

Date: 11 December 2025
Orbit: 883 x 1328 km, 63.4° (Epoch: 10 January)

Event Time Altitude Azimuth Distance (km) Brightness Sun altitude
Rises 18:28:13 0° 218° (SW) 3,494 7.3 -17.3°
Reaches altitude 10° 18:30:38 10° 220° (SW) 2,582 6.5 -17.8°
Maximum altitude 18:36:37 75° 305° (NW) 988 3.6 -18.9°
Enters shadow 18:41:22 20° 29° (NNE) 2,168 4.9 -19.8°
